Location: Oberkirch
(48.5323°N, 8.0787°E)
Time: 14:51:51
(UTC+00:00)

SR - Pass Details

Date: 22 February 2026
Orbit: 573 x 848 km, 66.7° (Epoch: 7 March)

Event Time Altitude Azimuth Distance (km) Brightness Sun altitude
Exits shadow 02:43:16 17° 56° (NE) 1,550 ? -36.1°
Drops below altitude 10° 02:44:30 10° 48° (NE) 1,990 ? -36.0°
Sets 02:46:57 0° 41° (NE) 2,942 ? -35.6°
